Location: *
(1.4000°N, 32.2500°E)
Time: 00:46:13
(UTC+00:00)

Daily predictions for brighter satellites

Satellite Brightness Start Highest point End
(mag) Time Altitude Azimuth Time Altitude Azimuth Time Altitude Azimuth
Ariane H10-3 4.4 00:40:49 24° E 00:40:49 24° E 00:44:37 10° E
Ariane H10+ 4.0 01:13:46 58° ENE 01:13:46 58° ENE 01:17:39 10° E
Cosmos 1844 Rocket 4.3 01:20:53 24° S 01:20:53 24° S 01:23:00 10° SSE
Ariane 42L Rocket 4.2 01:39:46 32° S 01:40:36 34° SSE 01:51:24 10° E
Meteor 1-31 Rocket 4.4 01:38:10 10° NE 01:41:33 32° E 01:45:00 10° SSE
Cosmos 1470 4.3 01:44:39 29° NE 01:45:35 34° E 01:49:06 10° SSE
Cosmos 1758 4.3 01:49:40 32° NE 01:51:02 45° E 01:54:56 10° SSE
Cosmos 2278 Rocket 3.7 01:47:58 10° N 01:53:02 35° ENE 01:58:07 10° SE
H-2A R/B 3.0 01:54:25 34° SSW 01:55:07 35° SSW 02:06:31 10° SE
BLOCK DM-SL R/B 3.3 01:54:12 44° W 01:56:58 85° S 08:30:00 10° E
CZ-4B R/B 3.1 01:54:57 10° NNE 01:58:31 57° ESE 02:02:03 10° S
In-Cosmos 22 3.9 01:55:32 10° S 02:00:48 80° W 02:06:08 10° N
PAYLOAD A 4.0 01:57:57 10° N 02:03:00 59° WNW 02:08:16 10° SSW
Cosmos 2181 Rocket 4.1 02:03:50 45° WNW 02:04:35 48° W 02:10:27 10° SSW
CZ-2C R/B 2.3 02:03:40 10° N 02:08:39 66° WNW 02:13:30 10° SSW
USA 238 DEB 3.9 02:02:12 14° NNW 02:08:51 81° ENE 02:16:20 10° SSE
USA 238 4.0 02:02:13 13° NNW 02:08:56 80° ENE 02:16:25 10° SSE
OAO 1 4.4 02:08:50 45° NW 02:10:37 87° SW 02:16:10 10° SE
ATLAS V CENTAUR R/B 3.5 02:10:14 42° NNW 02:11:10 54° NNE 02:22:03 10° ESE
Palapa B4 Rocket 4.0 02:12:54 29° SSW 02:13:29 30° SSW 02:17:39 10° SE
SWIFT 3.9 02:13:44 22° SSW 02:14:10 22° SSW 02:17:29 10° SSE
HETE-2 4.5 02:14:50 55° WSW 02:15:42 82° S 02:19:55 10° E
Cosmos 962 Rocket 4.4 02:10:31 10° S 02:16:44 83° W 02:23:01 10° N
Cosmos 1741 Rocket 4.3 02:12:01 10° SSW 02:17:01 43° WNW 02:22:01 10° N
Meteor PRIRODA 3.9 02:14:10 10° NNE 02:17:50 70° E 02:21:30 10° S
PSLV R/B 4.0 02:14:25 10° SSE 02:18:28 76° E 02:22:29 10° N
Ariane H10+ 4.2 02:04:23 26° W 02:19:58 75° SSW 02:27:19 10° ESE
Cosmos 1437 Rocket 3.8 02:18:37 10° SSW 02:27:40 - N 02:20:44 28° SW
Okean 1-7 Rocket 4.1 02:21:07 10° SSW 02:25:09 36° W 02:29:12 10° NNW
GPS 2-05 Rocket1 3.5 02:25:28 29° N 02:26:03 32° NE 02:28:33 10° ESE
Atlas 2A Centaur Rocket 4.4 02:21:35 25° WNW 02:26:09 46° N 03:09:57 10° ENE
Meteor 2-5 Rocket 3.6 02:20:40 10° S 02:26:20 79° W 02:32:06 10° N
Hubble Space Telescope 0.6 02:27:25 30° WSW 02:29:21 76° NNW 02:33:27 10° NE
NOSS 3-2 (A) 4.2 02:23:23 10° NNW 02:31:54 82° WSW 02:40:26 10° SSE
Centaur AC-119 3.9 02:29:13 24° NW 02:32:06 77° NNE 02:49:34 10° ESE
ARIANE 5 DEB (SYLDA) 2.8 02:31:29 27° W 02:33:16 66° S 02:36:31 10° E
Atlas Centaur 2 4.1 02:30:09 10° SSW 02:33:36 21° SE 02:37:37 10° E
Cosmos 2228 3.4 02:31:07 10° N 02:35:19 65° E 02:39:31 10° SSE
MOS 1-B 4.3 02:33:45 10° N 02:39:33 82° WNW 02:45:21 10° SSW
Cosmos 1726 4.1 02:36:52 10° NNE 02:40:11 32° E 02:43:33 10° SSE
Cosmos 921 Rocket 3.9 02:39:55 22° WNW 02:41:19 27° W 02:44:51 10° SSW
ALOS 3.2 02:40:01 10° NNE 02:44:31 51° ESE 02:49:03 10° S
Cosmos 1602 Rocket 3.7 02:42:13 10° S 02:46:35 77° E 02:50:53 10° N
Fermi 3.8 02:44:05 20° WNW 02:46:44 65° SSW 02:50:47 10° SE
CZ-4B DEB 4.1 02:43:28 10° N 02:48:54 80° WNW 02:54:22 10° SSW
Cosmos 1674 3.4 02:45:55 10° SSW 02:49:09 29° W 02:52:23 10° NNW
Cosmos 1726 Rocket 3.4 02:46:02 10° N 02:50:21 81° W 02:54:44 10° S
Cosmos 44 3.1 02:48:07 10° NNW 02:52:27 84° ENE 02:56:58 10° SSE
Palapa 6 Rocket 3.6 02:47:05 12° WSW 02:53:02 67° NNW 02:58:06 10° ENE
Cosmos 864 Rocket 4.5 02:47:13 10° S 02:53:22 89° W 02:59:35 10° N
SJ-12 3.9 02:51:35 10° N 02:55:40 70° WNW 02:59:48 10° SSW
NOSS 3-2 (C) 4.3 02:50:05 10° NNW 02:58:37 81° WSW 03:07:09 10° SSE
ASC 2 Rocket 2.8 02:55:17 10° WSW 02:59:31 77° NNW 03:03:36 10° ENE
ARIANE 5 DEB (SYLDA) 3.6 02:53:42 12° W 03:00:00 77° S 03:04:23 10° E
CZ-4B R/B 3.3 02:55:30 10° NNE 03:00:48 82° ESE 03:06:13 10° S
Cosmos 1626 2.3 02:59:55 10° S 03:03:36 75° E 03:07:16 10° N
NOAA 6 4.1 02:59:46 10° NNE 03:04:54 85° ESE 03:10:01 10° S
METEOR-M 4.1 03:00:12 10° N 03:05:31 81° WNW 03:10:52 10° SSW
PAYLOAD B 4.3 03:01:56 10° N 03:07:18 57° WNW 03:12:41 10° SSW
Nadezhda 3 Rocket 4.3 03:04:59 10° NNW 03:10:55 45° W 03:16:51 10° SSW
FENGYUN 3A 3.7 03:06:20 10° N 03:11:44 75° WNW 03:17:09 10° SSW
Meteor 1-24 Rocket 4.3 03:08:51 10° SSW 03:13:49 34° W 03:18:57 10° NNW
Cosmos 1953 3.8 03:12:37 10° NW 03:15:12 17° W 03:17:48 10° SW
